Vorticity
nan nan nan nan nan nan nan nan nan nan nan nan nan nan nan nan nan nan nan nan nan nan nan nan nan nan nan nan nan nan nan nan nan
nan 13 14 13 12 12 12 13 12 9 6 8 9 9 9 8 9 8 9 9 7 8 8 9 10 9 9 8 8 9 9 8 nan
nan 11 12 12 11 12 14 15 14 15 14 11 9 10 9 8 9 10 9 9 8 7 8 9 9 9 8 8 9 9 8 8 nan
nan 7 7 8 9 9 11 14 16 16 14 13 12 11 11 10 10 11 10 8 9 9 8 9 9 9 9 9 9 9 8 7 nan
nan 8 8 7 9 9 9 9 11 13 12 12 12 13 12 13 13 12 8 7 9 9 9 9 9 8 8 9 9 10 9 8 nan
nan 8 7 7 8 8 8 8 8 8 9 8 9 11 11 12 14 10 8 9 10 11 11 9 9 10 10 9 9 8 9 10 nan
nan 8 7 5 6 7 8 8 8 7 7 7 7 7 7 9 10 12 13 11 12 13 11 10 10 10 9 9 9 9 10 10 nan
nan 8 8 8 8 8 7 7 6 7 6 6 8 7 8 8 7 8 11 12 12 13 12 11 11 11 10 10 10 9 9 9 nan
nan 10 9 9 8 7 8 9 8 9 10 11 9 6 7 7 8 9 10 9 10 12 13 13 11 11 11 10 10 12 10 6 nan
nan 10 9 7 8 10 11 12 11 8 9 10 10 11 11 11 10 9 8 8 10 10 10 12 13 12 12 10 11 12 13 6 nan
nan 8 8 10 10 10 9 8 9 10 9 10 9 10 11 11 11 10 10 10 9 9 10 8 10 13 11 9 11 12 12 12 nan
nan 11 10 9 8 8 8 8 8 9 9 10 9 10 10 9 9 10 10 10 9 10 9 9 10 9 10 10 11 13 11 13 nan
nan 8 8 8 11 8 6 8 10 9 9 8 9 9 9 10 9 10 10 10 11 12 10 9 8 9 13 11 11 11 11 10 nan
nan 7 7 8 8 10 9 9 10 10 10 9 9 9 10 11 11 11 11 11 12 9 9 10 10 10 10 13 11 11 12 8 nan
nan 8 8 10 10 10 10 10 10 9 10 10 9 9 9 11 11 11 12 12 10 11 11 11 10 11 12 12 14 14 12 13 nan
nan 9 9 9 9 10 10 10 8 9 9 10 10 7 8 11 13 12 11 11 13 13 12 11 11 11 10 10 12 16 16 16 nan
nan 9 11 10 8 9 9 9 11 12 11 10 8 9 11 11 13 13 12 11 11 11 11 11 11 10 10 11 11 11 13 14 nan
nan 10 10 10 11 10 9 10 10 9 11 12 11 12 12 12 11 11 12 12 11 12 10 7 8 7 9 9 9 10 12 8 nan
nan 10 11 10 10 9 10 11 12 11 11 10 10 12 12 12 11 12 12 12 15 16 11 9 9 7 4 8 6 10 16 11 nan
nan nan nan nan nan nan nan nan nan nan nan nan nan nan nan nan nan nan nan nan nan nan nan nan nan nan nan nan nan nan nan nan nan
CAPE
189 3 0 4 23 25 0 404 834 779 740 738 410 376 367 149 58 0 1 8 9 0 0 9 16 6 20 83 428 663 639 466 563
536 418 183 43 97 88 12 0 364 809 850 948 630 602 489 277 119 41 54 38 18 28 1 9 24 39 57 172 412 729 774 693 759
1028 843 844 857 907 1019 1138 242 0 150 1030 1302 1183 888 670 651 438 160 141 105 94 90 93 42 115 83 138 301 524 720 878 895 804
699 600 537 562 635 689 965 1236 1091 1378 1439 1361 1551 1527 1095 810 646 294 151 201 228 223 185 94 109 162 143 244 397 647 842 942 1026
528 368 328 317 269 254 483 674 847 1081 1338 1404 1134 1035 1181 1098 813 182 660 528 384 293 291 229 162 205 271 297 286 376 649 845 1030
311 179 54 0 0 0 4 223 210 89 63 191 322 283 399 572 618 950 749 105 747 688 557 522 389 304 318 407 455 398 333 523 725
38 0 0 0 0 0 0 0 1 0 0 0 0 0 0 69 403 489 567 553 663 640 586 739 828 744 563 414 384 324 250 175 255
0 0 0 0 0 0 0 0 0 0 0 0 0 0 0 0 0 32 209 395 502 651 834 679 420 656 674 611 440 281 181 76 29
0 0 0 0 0 0 0 0 0 0 0 0 0 0 0 0 0 0 0 0 39 406 405 580 667 694 620 579 551 445 32 68 95
0 0 0 0 0 0 0 0 0 0 0 0 0 0 0 0 0 0 0 0 0 60 298 394 528 759 782 547 512 380 93 3 50
0 0 0 0 0 0 0 0 0 0 0 0 0 0 0 0 0 0 0 0 0 0 13 112 252 552 804 940 887 474 170 7 74
0 0 0 0 0 0 0 0 0 0 0 0 0 0 0 0 0 0 0 0 0 0 0 0 1 54 186 474 674 563 315 0 41
0 0 0 0 0 0 0 0 0 0 0 0 0 0 0 0 0 0 0 0 0 0 0 0 0 0 0 92 316 304 270 10 106
0 0 0 0 0 0 0 0 0 0 0 0 0 0 0 0 0 0 0 0 0 0 0 0 0 0 6 101 155 135 70 30 49
0 0 0 0 0 0 0 0 0 0 0 0 0 0 0 1 1 1 0 0 0 0 0 0 0 0 0 0 16 0 1 1 1
0 0 0 0 0 0 0 0 0 0 0 0 1 6 2 2 2 4 3 4 6 6 5 3 1 3 1 0 0 0 1 1 1
0 0 0 0 0 0 0 0 0 0 0 9 9 2 3 3 4 5 6 5 16 12 6 2 2 5 4 3 1 1 13 1 1
0 0 0 0 0 0 0 0 2 7 10 2 6 9 10 5 4 9 6 2 2 5 5 1 5 5 8 20 8 0 0 0 3
0 0 0 0 0 3 0 3 4 4 2 6 7 6 6 4 3 3 5 4 1 0 0 0 0 0 0 0 0 0 0 0 0
0 0 0 0 0 8 2 2 0 1 3 10 9 7 6 6 3 5 3 5 12 6 0 0 0 0 0 0 0 0 0 1 2